GFSNE_sfc_30mbdewp_000.txt.gz
Dewpoint
33 32 33 35 35 34 34 32 32 29 27 26 26 27 26 26 26 26 28 32 28 30 35 34 35 36 35 36 40 42 44 42 39 43 45 44 43 48
30 27 24 24 26 27 26 25 24 22 18 17 16 17 19 19 22 22 23 27 30 31 34 31 32 33 32 33 34 36 41 44 41 39 42 44 45 44
24 23 22 22 21 19 19 19 19 18 16 15 16 16 18 20 22 23 22 22 24 31 33 28 27 28 29 28 30 34 37 41 42 41 41 41 44 46
21 21 19 15 17 18 18 19 19 19 18 17 17 17 18 19 21 22 22 21 21 22 32 33 30 28 29 29 29 33 36 38 39 40 41 41 42 44
20 19 18 19 19 18 19 19 18 17 17 17 16 17 17 18 18 20 21 22 22 23 27 33 33 34 33 31 31 32 35 35 39 39 39 39 40 41
19 20 19 19 19 18 17 17 16 15 15 14 14 14 15 16 16 17 17 19 20 19 20 21 24 30 33 32 31 32 35 35 37 40 41 40 39 40
20 20 19 20 22 22 20 17 16 15 15 15 15 15 16 16 16 17 18 19 20 21 21 22 22 22 23 27 26 33 32 36 40 40 41 41 40 40
17 17 18 19 18 20 21 21 23 21 19 18 17 18 18 18 19 19 20 20 19 22 21 23 25 24 23 23 24 29 32 36 37 39 39 39 38 38
18 17 16 14 16 17 19 22 22 22 23 22 21 21 20 21 21 22 22 21 19 19 21 23 25 28 30 26 26 28 31 32 36 39 38 37 36 36
18 17 16 15 16 20 20 20 20 21 22 23 22 20 20 20 21 21 21 23 24 22 22 23 26 26 28 30 29 31 33 36 37 37 36 36 35 35
17 17 18 21 21 22 22 24 22 21 22 24 23 23 24 25 25 23 26 23 24 21 21 20 24 25 25 28 30 30 32 33 33 35 36 35 35 35
21 21 22 22 22 23 25 25 22 19 20 23 23 28 28 24 26 25 25 23 22 21 21 20 20 21 23 27 28 31 31 32 32 33 36 36 35 33
19 20 21 26 25 24 22 22 21 23 20 20 21 22 22 24 26 27 27 27 24 22 21 19 26 21 21 23 29 29 30 31 32 33 34 35 33 33
21 23 27 22 22 20 19 20 20 21 21 23 23 22 22 22 23 25 25 25 27 24 23 24 26 21 21 24 24 23 29 30 33 32 33 35 32 32
25 24 21 21 20 19 21 19 21 23 22 22 22 23 25 26 28 29 28 27 26 27 28 27 27 23 23 25 25 27 27 31 32 33 34 34 33 34
22 25 22 21 22 22 21 21 21 21 20 21 21 23 25 27 29 29 28 29 28 26 29 29 29 28 25 25 24 24 27 28 33 32 33 34 34 33
21 21 19 18 19 18 17 18 18 19 20 20 21 22 23 24 27 27 27 28 27 26 27 28 31 31 29 28 27 29 27 27 28 30 31 28 31 32
19 16 16 16 17 16 15 16 18 18 18 20 21 22 22 23 24 28 25 25 26 26 24 28 29 28 29 29 31 24 22 27 27 32 29 27 26 29
15 15 15 15 16 13 15 16 16 17 19 19 21 21 21 22 24 26 27 27 25 23 23 24 25 26 24 23 27 25 26 25 31 30 31 28 27 26
13 13 13 14 12 11 13 14 16 17 17 18 19 19 20 21 21 22 24 25 27 25 25 24 25 26 26 26 28 26 24 25 28 27 29 29 28 23
12 12 12 12 12 12 13 14 17 17 17 19 18 19 20 21 20 20 22 24 25 25 23 22 23 24 26 27 25 23 23 24 26 27 28 26 25 24
8 8 10 11 12 13 13 14 13 16 16 16 18 19 19 21 19 19 19 21 21 23 20 20 21 21 22 21 24 22 22 23 23 23 24 24 24 24
8 8 9 11 11 12 12 13 12 13 15 15 17 18 20 19 19 19 19 19 18 20 19 20 18 18 19 19 21 20 20 21 21 23 22 22 23 23

GFSNE_sfc_30mbdewp_003.txt.gz
Dewpoint
35 34 34 35 36 33 31 33 33 31 28 30 32 35 36 34 30 30 28 33 33 33 34 34 36 34 32 34 36 39 41 43 42 41 43 45 46 45
32 29 28 27 26 27 28 31 32 31 27 25 22 24 24 23 26 28 27 34 33 30 29 30 33 34 34 33 35 37 37 40 44 41 39 40 42 44
30 29 26 26 24 21 22 22 20 20 19 19 18 19 21 22 21 25 25 26 27 31 28 27 29 31 31 30 28 30 35 38 41 44 42 40 39 40
26 25 25 24 23 20 19 18 18 17 17 17 17 19 20 22 24 25 22 21 23 23 32 30 30 29 27 28 29 30 31 35 37 39 43 43 42 41
22 21 20 19 18 19 19 19 17 17 17 16 16 17 18 19 19 21 22 24 21 23 32 32 34 32 31 30 31 33 33 35 36 36 36 40 41 41
17 18 18 18 19 19 19 18 17 17 15 16 15 15 16 16 17 18 19 21 21 18 19 20 27 32 31 32 33 32 32 32 34 36 36 37 39 40
18 17 18 19 22 21 19 18 18 18 17 15 16 16 16 16 16 18 19 21 22 23 23 24 25 25 25 29 29 33 33 33 34 35 39 39 39 41
16 16 16 18 19 23 24 25 23 17 17 18 17 17 17 19 19 19 20 20 20 24 22 24 26 25 26 27 28 28 28 30 32 32 35 38 38 38
16 17 17 16 17 16 17 20 22 24 24 21 19 19 19 19 21 22 22 22 22 22 22 24 26 28 29 26 29 31 30 33 34 36 38 38 36 36
16 17 17 17 17 19 21 20 19 19 21 22 22 21 21 21 21 22 22 23 25 25 25 24 27 28 28 29 28 29 31 30 32 35 36 37 36 35
17 17 20 19 18 20 21 21 21 20 21 23 24 24 24 25 25 25 26 27 25 21 22 23 25 27 27 28 29 28 29 31 33 35 36 35 35 35
20 18 20 21 23 23 23 24 23 22 21 24 24 26 31 30 27 25 22 22 23 22 21 22 23 22 24 28 28 30 31 31 31 32 33 34 36 35
20 21 22 25 24 24 23 22 21 23 21 20 20 20 20 21 23 29 26 25 24 23 24 23 29 24 24 23 26 30 33 33 34 34 33 33 36 35
20 22 26 21 20 20 20 20 22 20 21 23 23 23 24 22 21 23 26 31 30 28 27 27 28 25 23 25 24 26 27 31 32 33 34 35 35 34
24 21 24 22 22 22 25 21 21 23 25 22 23 24 26 28 28 29 30 31 31 29 28 28 27 30 31 24 24 24 28 29 32 32 33 34 34 34
21 22 23 23 23 25 24 24 24 23 21 23 23 24 25 28 30 31 30 28 29 28 29 30 30 28 28 25 26 26 26 26 34 33 33 34 36 36
20 21 19 18 19 21 19 20 21 20 21 22 23 23 24 25 26 30 26 27 28 26 27 29 30 30 28 27 26 26 26 28 31 29 33 31 33 34
19 17 17 17 18 19 18 18 19 19 19 20 21 23 23 24 25 29 27 25 24 27 27 26 30 28 27 28 30 26 26 26 26 30 33 31 27 30
16 16 15 16 14 11 14 15 15 18 19 20 21 22 22 23 25 26 26 28 26 25 23 26 28 28 25 22 26 27 28 26 30 30 30 32 28 27
14 15 13 12 11 10 12 15 17 18 19 20 21 21 21 23 24 23 25 23 23 25 27 27 27 27 26 25 26 24 25 25 26 27 28 31 29 25
10 8 10 10 12 13 14 16 18 18 18 19 20 21 21 22 22 21 22 23 22 22 23 22 23 24 26 28 26 25 24 23 24 25 27 28 26 24
8 8 9 11 13 13 13 15 16 16 17 17 18 21 22 21 22 21 21 21 21 22 22 21 21 21 24 23 24 23 24 24 23 23 24 24 23 23
9 9 10 11 11 11 11 13 14 14 14 15 16 19 21 20 21 21 21 21 19 20 20 20 22 19 20 19 21 23 20 21 22 25 22 22 23 23

GFSNE_sfc_30mbdewp_006.txt.gz
Dewpoint
37 38 36 36 36 36 35 35 33 30 28 27 35 38 40 42 43 40 37 33 31 34 37 35 37 36 34 34 35 39 41 43 43 43 44 45 46 46
36 36 37 35 34 32 33 34 34 32 30 30 27 26 27 29 37 38 34 35 33 33 32 29 30 30 32 33 34 35 37 39 42 43 42 39 39 40
31 31 31 31 31 31 29 27 25 26 25 23 24 24 24 27 26 25 27 32 34 33 31 29 29 30 30 30 29 28 29 32 36 41 44 41 38 37
28 27 27 26 26 24 24 24 23 23 22 20 21 21 21 22 23 25 26 24 27 32 32 31 29 28 30 30 28 27 27 29 32 35 40 43 43 41
21 22 22 22 22 22 22 22 22 22 22 21 20 20 20 21 20 22 22 24 25 23 30 32 32 30 30 31 29 29 29 30 32 34 36 37 39 41
21 20 21 21 22 23 23 23 22 21 20 20 19 19 19 20 20 18 19 21 21 21 20 24 32 32 31 31 30 30 30 31 32 33 32 33 36 38
20 19 19 21 23 23 20 21 20 20 19 19 19 19 19 19 20 23 24 24 25 27 26 25 25 30 33 35 32 32 33 32 34 34 34 35 35 38
19 18 19 20 20 21 21 22 21 19 18 18 17 18 18 19 22 22 23 23 22 26 25 25 28 27 29 29 31 30 29 31 35 35 34 36 37 36
18 18 18 18 21 21 24 25 23 27 26 23 21 21 20 19 20 21 22 23 24 25 25 24 26 27 30 29 32 31 28 28 29 30 35 35 36 37
19 18 18 19 22 22 22 23 23 22 23 24 24 25 24 23 23 25 25 25 25 26 26 24 26 26 28 30 29 29 30 29 28 29 30 33 36 37
19 20 21 20 20 20 22 22 23 22 22 23 24 26 26 26 27 26 24 24 24 25 25 23 23 25 26 27 29 30 29 28 31 31 32 34 35 36
21 20 19 22 26 25 25 26 24 24 23 24 23 22 21 26 29 30 27 23 20 20 22 23 23 25 25 26 27 29 30 30 30 31 32 33 35 34
19 19 21 27 25 22 21 22 22 22 23 22 21 20 21 22 23 23 28 28 24 21 23 23 27 28 28 27 25 27 30 30 31 31 33 33 33 33
20 23 23 23 22 21 22 23 24 22 21 21 22 23 25 25 25 24 24 28 31 27 27 28 29 27 25 24 24 26 26 29 31 31 33 34 34 33
22 22 23 23 22 23 24 23 24 23 23 23 23 24 26 27 27 27 29 30 31 31 31 30 30 29 28 26 26 26 25 28 30 34 33 33 33 34
20 21 23 21 22 24 24 23 24 25 23 24 23 25 27 27 28 29 30 29 29 28 30 31 29 29 27 27 27 26 26 25 29 33 33 32 32 33
20 20 19 18 19 20 19 21 22 22 22 22 23 24 24 25 25 26 28 27 26 27 27 28 30 30 29 27 26 25 25 26 29 30 31 31 32 32
19 17 16 17 17 18 19 19 20 21 21 22 22 23 23 23 24 25 29 29 26 25 25 27 30 29 29 28 29 26 26 26 27 28 31 30 30 33
16 16 16 14 14 14 15 17 18 21 20 21 22 22 22 23 25 25 25 25 24 27 28 31 29 28 25 22 25 28 27 27 29 28 29 29 29 31
15 15 13 13 14 14 15 16 18 19 19 19 21 22 22 23 24 23 23 24 25 26 27 24 23 23 24 23 25 23 27 26 27 26 27 30 28 29
11 11 12 14 14 14 15 16 17 19 18 18 19 21 23 23 22 22 23 22 23 23 23 21 21 23 24 27 25 22 22 24 24 24 24 25 27 27
12 12 13 14 14 14 14 15 16 16 16 16 16 18 21 23 22 22 22 22 22 22 22 22 24 21 22 22 22 23 23 23 23 24 24 23 22 20
12 13 13 13 13 13 13 13 13 13 13 14 15 16 19 19 21 22 21 22 20 17 17 22 21 23 20 19 20 23 19 21 23 22 21 22 23 24

GFSNE_sfc_30mbdewp_009.txt.gz
Dewpoint
35 37 37 37 37 37 37 37 34 29 28 30 30 31 34 39 40 41 44 43 42 40 38 37 41 36 33 32 35 37 40 41 43 44 44 45 46 47
33 33 33 35 36 37 37 35 35 32 30 29 29 30 29 28 37 36 40 41 41 41 38 34 32 31 31 32 31 31 32 34 37 40 44 43 40 38
31 29 26 26 28 33 34 32 29 30 30 27 24 24 23 23 23 31 35 36 37 39 36 31 29 29 29 30 31 29 26 26 29 31 34 40 44 40
22 22 22 22 22 24 25 24 24 23 23 23 22 22 22 23 22 20 23 21 31 36 35 31 32 32 32 30 30 29 27 26 27 29 32 34 38 42
22 21 20 20 20 21 24 24 24 24 22 21 20 21 21 22 21 22 21 21 22 23 29 33 30 32 32 31 30 29 28 28 29 29 32 33 34 36
22 22 21 19 20 21 22 22 23 23 22 20 20 19 20 21 23 23 23 25 24 24 22 26 31 33 35 35 31 30 30 30 30 31 31 32 33 32
21 20 18 19 19 22 23 23 23 23 21 19 19 18 18 19 20 23 23 23 24 27 26 26 27 28 30 32 35 34 33 33 35 36 35 34 34 34
18 17 18 19 20 20 23 27 26 24 21 19 18 18 18 19 20 20 20 21 21 26 26 25 26 25 28 29 28 31 31 30 29 30 34 36 36 36
18 18 18 17 19 21 23 24 24 24 25 26 25 23 21 21 21 20 21 21 22 24 25 24 26 25 27 29 30 30 28 28 28 29 29 30 35 35
20 19 19 21 22 21 20 21 22 23 22 22 25 24 24 24 24 23 24 27 27 26 26 23 24 24 25 27 29 31 32 30 28 27 26 28 30 34
21 21 19 19 20 24 24 24 24 24 23 23 25 28 29 30 29 29 26 24 22 22 24 24 24 23 24 25 26 28 29 30 31 30 29 28 29 32
20 19 19 22 26 26 23 23 21 20 22 22 22 22 22 22 22 25 26 24 24 20 21 20 20 22 21 24 25 27 27 29 29 30 32 32 31 32
18 19 20 20 22 23 22 23 22 22 23 22 21 21 21 21 22 23 24 26 24 24 23 22 22 24 25 25 25 24 26 27 29 29 31 32 33 33
19 19 21 24 21 21 24 25 24 23 23 21 21 21 23 24 26 29 28 26 28 26 26 25 26 25 25 24 24 24 25 26 28 28 29 31 33 34
20 21 22 20 22 23 24 24 24 24 22 22 22 23 24 26 28 28 29 30 30 30 30 29 30 30 28 26 24 24 25 26 28 29 32 32 32 32
19 21 20 20 21 23 21 22 23 22 22 21 22 23 26 26 26 27 27 27 28 27 30 31 31 31 28 28 27 26 26 25 28 30 31 31 32 31
19 19 17 16 17 18 18 19 20 21 21 21 22 22 23 23 24 26 27 28 27 26 26 27 30 30 29 28 26 27 26 26 25 27 29 28 31 32
16 16 15 15 15 15 16 17 18 20 20 20 21 22 22 22 23 25 25 25 24 25 27 27 28 28 28 29 30 28 26 25 26 28 29 28 27 29
14 15 14 14 15 15 15 16 16 20 19 19 20 20 21 22 23 23 22 23 23 25 26 26 27 26 24 22 25 28 27 26 28 26 27 27 27 28
12 13 13 14 15 15 15 15 16 18 17 17 18 18 20 21 21 22 22 22 22 24 23 22 21 22 22 22 23 22 26 26 26 25 25 27 28 28
12 13 14 15 14 14 14 14 15 15 15 15 15 16 17 20 20 21 21 21 21 22 21 21 23 23 23 24 23 21 21 24 24 23 23 22 23 26
10 11 13 14 12 12 14 13 13 12 11 12 13 14 16 18 18 20 20 20 18 17 17 18 23 24 20 20 20 21 21 22 22 23 23 22 21 20
10 10 11 13 12 12 14 12 11 9 9 10 10 11 13 15 16 18 18 17 19 17 16 19 22 21 24 20 20 22 19 20 22 21 20 21 23 23

GFSNE_sfc_30mbdewp_012.txt.gz
Dewpoint
33 34 33 33 34 34 35 34 30 26 27 32 30 31 32 32 34 39 37 39 40 40 43 43 44 42 34 35 37 38 40 42 43 45 45 44 44 45
33 29 26 25 27 28 32 33 33 31 27 29 28 27 25 24 25 30 37 34 37 39 40 41 39 41 40 34 31 32 32 33 34 36 39 44 43 40
23 23 22 23 21 22 23 25 27 29 27 25 28 24 22 22 22 24 24 36 36 36 38 41 40 40 36 34 32 29 27 26 26 28 31 34 37 43
22 22 21 20 20 21 21 22 25 25 24 22 23 21 20 21 22 21 23 23 30 31 33 36 40 39 37 32 31 31 27 24 24 26 28 30 33 36
21 21 21 20 19 19 20 21 22 22 24 22 21 21 21 20 21 23 24 25 25 26 28 27 35 39 37 34 31 30 29 27 26 28 28 29 30 32
22 21 20 18 18 19 20 21 23 23 23 22 21 20 20 20 22 22 22 23 22 23 28 28 30 32 34 35 35 34 32 31 31 32 32 32 32 32
21 20 18 17 17 17 20 21 27 26 25 23 21 20 19 18 18 22 20 20 19 26 26 26 26 27 29 29 31 34 34 34 34 34 33 33 33 33
20 19 19 18 18 19 21 22 22 26 24 25 23 20 18 18 20 19 20 19 18 25 24 22 26 26 27 30 31 31 32 30 30 31 33 34 35 35
21 20 19 18 20 21 22 22 21 22 23 23 24 24 22 22 21 20 20 21 21 23 25 24 24 23 25 26 27 30 29 29 29 29 29 30 31 33
22 21 19 20 20 20 23 25 23 24 24 23 22 24 24 24 23 23 22 22 26 27 26 23 24 23 24 25 27 30 32 31 29 28 28 27 28 29
20 19 19 22 22 22 22 23 22 21 21 23 26 26 27 28 28 28 25 24 21 22 24 23 22 22 22 23 25 27 28 29 30 30 29 29 29 29
18 18 18 19 22 25 25 23 21 20 20 21 23 22 21 21 21 22 22 21 22 22 22 21 20 20 19 22 22 24 27 29 30 31 32 31 31 31
17 17 19 21 21 21 24 23 22 25 24 23 22 21 21 21 22 23 23 23 22 21 23 22 22 21 21 22 23 24 24 24 26 28 30 32 32 33
18 19 22 20 22 23 23 24 23 24 24 22 21 21 22 23 25 27 28 28 26 24 24 25 24 24 22 22 24 24 24 24 25 26 27 29 31 32
19 20 18 19 20 22 21 22 23 22 21 20 21 22 24 26 28 28 29 30 30 29 28 27 27 26 26 24 22 23 23 24 25 27 29 30 29 30
19 19 18 18 17 20 20 21 21 21 21 20 20 22 24 25 25 26 26 26 27 27 29 30 29 29 28 27 27 25 25 24 26 28 30 29 30 31
15 16 15 15 15 15 15 17 18 20 19 20 20 21 22 23 23 25 26 27 25 25 26 27 29 30 30 29 26 26 26 26 26 26 28 27 28 29
13 14 13 14 14 14 14 15 15 18 18 18 19 19 20 21 22 23 23 23 23 24 25 25 27 27 28 28 30 27 27 26 25 25 27 27 27 27
12 12 13 13 14 14 14 14 14 16 17 17 17 17 18 20 21 21 21 21 22 24 23 23 25 26 22 20 25 27 25 26 26 26 27 28 26 26
11 12 13 14 13 13 13 13 13 13 12 13 14 15 15 18 18 19 20 20 20 22 21 22 22 22 21 21 22 22 24 25 25 24 25 25 27 28
10 10 12 14 12 12 13 12 12 9 9 10 11 12 13 16 16 18 18 18 16 17 16 17 20 23 22 24 21 20 21 23 23 22 22 21 21 24
10 10 10 12 11 11 12 11 11 8 7 8 9 10 11 13 14 16 17 17 17 15 16 19 22 23 20 19 19 20 20 20 21 23 23 21 19 19
10 10 9 10 10 10 12 10 9 7 6 7 7 9 10 11 13 14 14 14 13 13 14 15 17 21 22 19 20 22 20 18 21 20 20 21 23 23

GFSNE_sfc_30mbdewp_015.txt.gz
Dewpoint
32 33 32 30 26 28 27 32 30 24 23 28 29 28 29 27 27 27 36 37 36 38 38 38 41 44 44 38 41 45 46 47 48 47 46 44 43 44
31 24 23 23 23 24 23 23 25 29 24 28 28 28 27 23 23 24 24 30 37 36 36 37 40 42 44 42 41 38 39 41 41 42 44 44 43 40
23 22 22 23 22 21 22 21 22 23 23 23 26 27 24 22 21 22 24 25 33 36 36 36 37 39 41 43 41 40 37 34 33 34 35 36 41 44
22 22 21 20 20 21 20 19 20 21 23 20 23 24 21 21 21 20 24 25 25 29 35 33 36 37 39 40 40 38 38 31 28 30 32 31 33 35
22 21 21 20 19 17 18 19 20 21 22 22 21 23 22 22 20 21 23 24 22 22 28 35 35 35 36 39 40 38 35 33 28 28 30 31 31 32
22 22 21 20 18 18 18 18 22 24 24 25 24 22 22 21 21 20 20 22 19 18 23 27 34 33 35 38 38 37 34 31 29 30 30 29 29 30
23 22 21 20 19 18 18 19 20 21 23 24 24 24 24 19 18 20 20 20 19 20 24 26 26 28 30 32 33 36 36 33 32 33 33 32 30 30
23 21 21 20 19 18 19 20 20 21 22 23 21 22 23 19 19 19 19 19 17 23 23 22 25 23 24 26 29 33 34 35 34 33 33 33 34 34
21 20 19 17 19 20 20 21 21 22 24 24 22 22 22 23 21 21 20 20 20 21 24 23 24 24 24 23 26 28 32 31 31 31 30 30 30 31
18 19 18 19 21 20 23 22 22 22 22 23 25 23 22 23 23 22 21 22 22 24 26 23 23 22 23 24 26 27 30 31 30 29 29 29 28 28
19 18 18 19 19 23 23 22 23 22 21 20 20 22 28 28 28 25 24 22 20 20 24 23 22 21 22 22 22 26 28 30 30 30 30 29 29 28
18 17 18 19 21 22 24 23 21 20 21 21 21 22 22 21 21 22 22 21 20 19 22 22 21 20 17 21 22 22 25 28 29 30 31 31 31 31
18 17 19 20 21 22 22 23 22 24 24 23 23 22 22 22 22 22 23 21 20 19 21 22 20 20 20 20 22 24 24 24 25 25 28 31 31 32
18 19 20 17 20 20 21 23 22 23 22 21 22 22 22 23 25 26 27 26 24 22 23 24 21 21 21 21 22 23 24 23 24 24 25 28 30 32
17 17 16 15 16 18 18 20 21 20 20 19 19 21 23 25 27 27 28 29 29 29 27 26 26 25 24 23 22 22 23 24 23 25 27 28 28 29
15 16 16 16 15 16 16 17 19 20 19 19 19 21 23 24 24 26 25 26 25 27 29 29 27 27 25 25 25 24 24 25 26 26 27 27 29 29
12 13 13 13 13 14 14 15 15 16 16 17 18 18 20 22 23 25 25 25 24 24 25 27 29 30 29 29 26 25 25 26 25 25 26 26 26 26
12 12 11 11 12 13 13 13 13 13 14 15 16 16 17 19 21 22 23 22 22 23 23 24 27 26 27 28 31 27 26 26 26 26 26 25 25 26
10 10 10 11 11 13 12 12 12 11 12 13 13 14 15 17 19 19 20 20 21 22 21 22 24 26 23 21 25 27 25 25 25 25 25 26 26 25
10 10 11 11 10 11 12 11 11 8 8 9 11 11 12 14 16 17 18 17 16 18 17 18 21 22 21 20 21 22 24 23 25 24 24 24 25 27
10 10 10 12 10 10 10 10 9 6 5 6 8 10 10 12 14 15 15 16 15 15 16 17 19 21 22 22 20 20 20 23 22 21 21 20 20 22
10 10 9 10 10 8 9 9 8 6 5 5 6 7 8 10 12 13 14 12 13 13 13 16 18 22 21 20 18 19 20 20 21 23 23 20 18 18
11 10 9 8 8 8 9 9 7 6 5 5 5 7 8 9 10 10 11 11 10 10 12 15 16 18 21 19 18 21 20 18 21 20 20 21 23 23

GFSNE_sfc_30mbdewp_018.txt.gz
Dewpoint
31 31 32 30 25 25 24 24 24 19 17 18 24 30 29 31 30 27 24 28 34 37 37 38 39 41 42 43 42 45 48 48 48 49 51 51 50 48
31 26 23 23 23 23 23 22 22 21 19 19 20 27 29 29 28 27 23 27 28 37 36 37 37 38 38 40 43 41 42 48 49 49 47 46 44 43
23 23 22 23 22 22 21 20 19 20 18 17 20 23 25 25 26 24 23 25 27 30 37 35 35 36 37 38 41 42 39 39 44 46 46 45 42 41
21 22 21 21 21 20 20 18 18 19 19 19 21 22 22 24 23 21 21 23 24 24 26 33 34 36 36 37 38 40 40 37 32 36 39 44 45 45
22 22 21 22 21 20 18 18 19 19 20 22 22 23 24 24 23 22 21 24 22 20 20 28 34 36 36 37 37 40 39 38 34 31 34 35 37 38
23 23 23 22 21 20 19 20 18 19 20 19 20 24 24 23 23 21 19 22 20 19 18 25 30 35 35 36 37 39 39 38 37 30 30 29 31 33
24 24 23 22 21 19 18 19 21 22 22 20 20 20 21 23 23 24 21 20 20 20 21 25 25 29 32 36 36 37 38 38 37 34 31 30 29 30
21 20 19 18 18 18 18 19 20 23 22 21 19 19 19 20 24 23 21 19 17 21 23 21 25 24 26 28 31 35 37 37 36 34 34 32 31 31
18 17 17 16 18 19 21 21 21 21 23 24 21 21 21 21 22 23 23 21 19 20 22 21 24 24 25 23 25 29 35 36 37 36 35 33 33 32
18 18 17 18 19 19 23 22 20 21 22 22 21 22 23 25 23 22 22 22 22 23 25 21 23 23 24 25 26 27 31 34 34 34 32 31 31 31
18 18 17 18 19 21 23 22 20 21 21 21 22 22 21 22 26 26 23 23 19 18 23 24 23 22 22 23 24 26 27 30 32 31 30 30 29 27
19 18 17 18 19 21 22 21 20 19 21 23 24 23 23 23 22 22 22 21 21 19 22 23 22 21 18 21 22 23 25 28 29 30 30 31 31 31
18 17 18 19 17 18 19 21 21 22 21 21 22 23 23 23 22 22 22 20 19 18 19 23 21 21 20 20 23 24 24 25 26 27 30 30 31 32
15 17 19 15 15 16 18 19 19 20 20 20 19 20 21 22 24 27 26 24 23 20 21 23 21 21 21 20 20 23 24 24 25 25 26 27 30 33
15 15 15 14 15 16 16 16 18 18 18 17 18 19 21 23 25 26 27 28 28 27 27 28 25 23 23 22 22 22 23 24 23 25 27 28 29 30
13 13 13 14 13 15 14 15 15 16 16 16 17 18 21 22 24 26 25 26 25 26 29 29 27 26 24 25 23 22 24 25 26 26 26 26 29 29
11 11 11 10 11 13 12 13 13 12 13 14 15 16 17 19 21 24 24 24 23 23 25 28 29 28 28 26 25 25 23 24 26 26 26 26 27 29
10 10 9 8 9 12 12 11 10 9 9 12 13 14 14 16 18 20 21 22 22 22 23 23 26 26 27 28 30 27 26 25 25 26 26 26 26 26
8 8 8 9 9 10 12 11 10 7 9 9 11 12 13 14 16 18 18 18 18 20 21 22 24 26 23 21 24 27 26 25 25 25 26 26 24 25
9 9 8 9 10 9 10 10 9 6 4 6 8 9 10 12 14 15 15 16 16 16 17 19 21 21 21 21 22 23 25 23 23 24 24 25 26 27
10 10 9 8 10 9 8 8 7 6 4 3 6 7 8 10 12 12 13 12 13 14 13 15 18 20 21 22 20 20 21 22 22 21 22 21 21 22
12 11 10 10 9 9 7 7 7 6 5 4 4 6 6 7 9 10 11 11 11 11 12 14 18 21 21 20 18 19 20 20 22 22 22 20 19 18
13 12 11 9 8 7 8 7 7 6 4 5 4 6 6 7 8 8 9 10 10 9 10 12 14 16 19 19 18 19 20 19 21 20 21 22 23 23

GFSNE_sfc_30mbdewp_021.txt.gz
Dewpoint
29 29 28 27 27 25 25 24 22 21 19 17 17 17 18 20 22 24 26 29 30 28 36 37 36 35 38 39 42 42 43 47 49 49 51 51 51 53
27 29 26 25 25 25 24 24 22 20 18 15 13 14 15 16 19 22 22 27 27 30 33 37 36 35 36 38 39 43 41 41 47 49 49 49 52 50
27 25 24 23 23 22 21 19 17 16 14 14 13 14 15 18 18 20 20 23 24 28 30 31 35 35 35 37 38 40 41 41 39 47 48 50 50 47
23 23 23 22 21 21 20 18 17 16 15 13 13 13 17 18 19 21 21 23 21 22 25 26 30 35 35 36 37 38 40 40 37 40 46 47 46 46
24 23 22 22 21 19 18 17 16 17 16 15 15 15 15 15 23 21 21 22 21 22 21 20 26 34 36 36 37 37 38 39 38 34 41 44 46 46
25 24 22 20 18 17 18 18 17 19 18 18 16 15 15 16 18 20 20 19 19 19 18 19 23 32 36 36 36 37 38 39 38 36 33 37 40 41
19 17 16 17 18 18 17 17 17 17 17 18 15 13 12 13 14 16 19 22 25 20 19 18 20 25 31 34 36 36 37 39 37 37 30 30 31 33
15 14 14 15 15 17 18 18 19 21 21 17 15 19 18 17 17 16 23 21 18 20 19 18 20 20 25 27 30 32 36 40 38 38 36 32 30 30
15 14 14 14 16 16 16 18 21 20 20 21 20 17 15 14 17 20 20 21 20 24 20 17 22 21 23 23 24 28 35 38 37 37 36 36 33 31
15 15 15 15 15 17 22 19 18 15 18 20 22 21 19 19 19 22 23 21 21 20 21 19 19 22 23 24 25 28 31 37 38 37 37 37 34 33
16 16 15 15 17 20 19 19 15 14 17 18 21 22 23 24 24 21 21 20 18 14 15 19 20 22 23 24 25 25 30 35 37 37 36 35 32 30
17 14 15 17 18 16 15 17 16 17 15 17 18 20 22 23 24 21 18 21 18 22 18 21 18 19 18 24 25 25 26 29 34 33 33 32 30 28
14 12 14 17 14 14 15 17 19 18 18 18 17 17 18 20 22 25 21 18 16 15 15 18 16 18 18 19 23 27 25 27 28 30 30 31 32 31
16 13 15 14 14 15 15 16 16 17 18 18 18 17 18 19 20 22 26 26 23 18 16 19 18 16 16 19 17 24 26 27 27 28 29 29 30 32
17 13 14 13 13 13 13 14 14 14 16 16 16 17 19 22 25 27 27 26 27 26 25 25 25 23 21 21 17 21 23 26 29 29 30 29 29 31
15 12 13 12 12 13 12 12 11 11 14 15 16 18 20 22 24 26 26 27 26 26 30 30 29 28 25 21 20 22 25 26 27 28 30 30 31 32
13 12 11 10 8 9 10 9 7 7 11 14 15 16 17 18 20 23 24 26 25 25 26 29 30 30 28 25 22 22 24 25 27 30 29 27 28 30
11 10 9 11 9 7 9 9 7 5 8 12 14 15 15 17 18 19 20 22 22 23 24 26 28 26 27 28 30 28 25 24 26 27 27 26 25 27
12 12 12 11 10 8 7 7 6 6 6 10 13 13 14 15 17 17 17 18 18 19 20 24 25 26 23 22 25 27 28 26 28 27 27 26 24 26
14 13 13 13 11 8 7 7 7 7 5 5 11 12 13 14 15 15 16 15 15 15 15 18 21 22 22 23 25 25 26 27 26 26 24 27 27 28
16 14 14 13 12 11 10 10 10 9 7 6 7 10 11 11 12 13 14 15 13 12 12 14 18 21 23 25 23 24 25 23 25 25 25 24 24 24
19 17 15 14 14 13 12 12 10 10 8 5 6 9 10 11 10 12 13 13 12 12 11 14 18 22 23 21 19 22 23 24 23 23 23 22 22 20
20 19 18 17 16 15 13 12 10 10 10 6 5 7 10 9 9 11 11 12 11 10 11 14 17 19 20 20 20 20 22 22 22 22 24 22 24 23

GFSNE_sfc_30mbdewp_024.txt.gz
Dewpoint
25 24 23 21 20 20 20 20 21 22 19 16 14 14 14 15 16 16 18 21 26 29 31 30 33 36 35 34 35 36 39 43 43 44 49 50 51 53
22 24 24 21 20 20 19 18 18 19 18 14 12 14 15 14 15 16 17 20 22 24 30 30 36 37 36 34 35 36 39 41 41 41 45 50 50 51
24 25 24 23 21 19 19 18 16 15 14 14 13 14 15 15 16 19 19 19 19 22 29 30 29 30 34 35 35 36 38 40 41 39 39 47 50 49
24 24 23 21 20 19 18 16 15 15 16 15 14 15 15 16 16 18 16 18 18 17 28 26 25 26 35 36 36 37 37 38 40 39 36 44 48 49
25 24 22 21 19 16 16 15 15 16 17 17 16 16 16 16 16 17 19 21 18 21 24 22 21 22 29 35 36 36 37 38 39 39 37 43 45 50
23 22 19 16 15 16 15 15 15 17 17 16 16 15 16 14 13 16 17 18 20 22 20 17 19 20 26 36 36 36 36 37 39 39 36 42 43 46
18 15 14 16 17 17 17 16 16 17 18 16 18 17 15 15 17 16 16 14 17 19 25 22 18 17 23 34 33 35 35 37 38 38 36 36 41 42
14 13 14 14 15 16 18 18 17 17 18 19 19 17 17 14 15 14 16 17 17 19 30 22 23 17 17 21 29 27 30 34 37 38 35 36 34 37
14 14 14 13 15 15 16 18 21 22 25 20 17 20 21 18 19 17 16 16 20 19 24 21 21 20 20 17 24 26 28 32 36 38 36 35 34 32
16 16 15 13 14 17 17 17 15 14 11 15 17 17 17 18 19 20 20 17 18 17 17 17 18 19 22 22 23 25 28 31 35 38 36 36 35 33
17 16 14 13 16 17 15 14 13 11 16 15 16 18 19 23 23 21 19 15 18 18 15 16 18 17 19 22 24 26 27 31 33 36 37 36 36 33
17 15 12 16 16 15 15 14 16 16 13 15 16 16 16 17 23 24 20 16 15 18 20 17 17 18 18 20 22 24 25 32 33 36 36 37 34 32
17 16 13 15 14 14 15 15 16 16 15 16 17 17 17 18 19 20 27 20 17 15 14 16 15 18 19 20 23 23 25 30 34 35 35 36 35 34
18 17 16 13 14 13 14 14 15 16 16 18 18 18 18 21 22 24 23 22 24 20 18 23 17 16 18 18 19 23 24 25 28 33 33 32 30 31
18 17 15 13 12 11 12 13 13 13 14 16 16 17 19 22 24 28 29 30 24 25 23 23 21 21 21 19 19 20 23 24 26 27 30 30 29 29
18 16 14 15 13 10 12 11 11 10 12 17 17 18 18 21 22 24 26 29 27 26 27 27 27 26 25 22 21 22 24 27 26 25 28 28 27 27
17 16 14 13 11 9 10 10 10 7 8 14 16 17 16 17 19 23 23 24 26 24 26 30 31 31 29 28 22 21 22 23 29 31 28 25 26 27
16 16 16 16 14 11 10 10 10 8 6 10 14 15 16 17 17 19 21 22 23 23 25 26 30 27 27 28 30 27 21 23 24 26 26 25 23 26
17 17 17 16 15 11 10 9 9 9 9 7 9 11 13 14 18 17 18 18 19 19 21 25 25 27 22 21 25 27 29 26 26 26 26 27 24 26
18 17 17 16 15 12 9 9 9 11 11 9 9 11 12 12 12 13 16 17 16 16 16 19 22 21 22 23 25 27 26 30 27 28 28 29 31 29
18 17 17 17 16 14 14 14 13 12 12 11 11 10 12 11 10 10 12 13 13 13 13 15 18 22 23 25 26 25 26 24 26 28 27 25 26 26
20 18 18 17 17 17 16 16 15 13 12 10 9 10 12 11 10 10 11 11 10 11 10 14 18 22 23 22 22 23 24 25 23 23 23 23 25 24
22 20 20 19 19 19 17 16 15 14 13 11 10 9 10 11 10 9 10 9 9 9 10 14 18 20 21 19 20 22 23 24 24 23 24 23 24 24

GFSNE_sfc_30mbdewp_027.txt.gz
Dewpoint
34 33 29 27 28 26 23 21 19 22 21 18 18 18 17 18 19 21 21 20 22 24 24 24 25 28 28 32 34 33 33 34 36 38 42 42 45 50
32 29 26 28 28 26 22 21 17 17 17 16 14 16 17 17 18 20 20 23 23 25 26 25 27 27 29 34 35 33 34 34 35 37 40 41 41 47
27 26 28 27 25 24 22 18 17 16 15 15 15 17 17 18 18 19 20 20 20 21 23 26 27 31 31 29 32 34 35 35 35 37 40 41 39 44
27 26 25 24 23 18 17 15 16 15 15 14 15 17 18 18 19 18 18 17 19 22 25 25 29 28 27 25 30 36 36 36 36 37 39 39 37 42
27 26 24 21 18 16 16 16 15 14 15 17 18 18 17 16 17 18 17 16 18 20 23 25 28 28 28 26 29 33 36 37 36 36 38 39 36 43
25 22 18 17 16 17 16 16 15 15 16 16 16 17 16 19 19 18 20 20 17 14 16 20 28 30 28 25 27 28 36 37 36 35 39 38 37 42
20 16 15 16 17 17 16 15 16 16 16 16 17 17 19 16 16 16 18 16 16 18 20 24 27 29 24 27 24 31 35 33 34 36 38 35 38 41
16 15 15 15 15 16 18 18 18 16 18 21 18 14 13 16 22 23 20 18 14 18 24 28 27 32 23 23 30 30 26 29 32 35 37 36 36 38
17 16 16 13 15 16 17 16 17 19 20 19 19 20 22 17 17 19 18 20 19 19 20 22 25 26 24 20 25 25 26 27 31 35 38 35 35 36
19 18 16 15 16 18 16 15 13 12 12 13 15 16 16 16 16 18 18 16 18 18 16 19 21 21 24 23 24 26 26 26 32 35 37 36 35 35
19 17 17 14 17 17 15 14 13 12 13 14 13 16 19 20 21 21 23 20 20 17 19 25 22 20 23 22 25 24 26 26 32 34 36 37 35 35
19 17 16 15 16 15 15 14 14 14 11 12 15 17 17 18 20 23 24 24 21 17 20 26 19 18 18 23 25 27 29 28 32 34 35 37 36 37
19 17 17 17 15 14 15 15 16 15 14 16 18 18 19 19 19 21 23 26 25 21 18 20 19 18 20 23 26 27 25 33 34 33 34 36 36 38
20 19 20 18 15 15 14 14 14 15 17 16 18 17 18 20 21 22 28 31 29 24 22 20 22 19 17 19 17 25 24 27 34 34 32 34 35 34
21 20 18 17 14 14 12 13 16 13 12 13 17 18 19 20 21 23 25 26 32 28 22 22 22 21 19 20 19 20 22 24 29 32 36 35 34 33
23 21 19 18 17 17 16 14 14 13 10 11 15 17 20 19 19 22 24 25 27 30 28 26 25 25 23 23 22 22 24 25 26 28 30 31 30 30
20 19 18 17 16 15 14 13 13 13 11 10 12 13 16 17 18 20 22 23 23 24 25 30 32 31 30 26 26 21 21 23 28 28 27 26 27 29
18 18 18 19 19 16 14 13 14 13 13 12 11 11 11 12 15 19 19 20 21 21 23 24 30 27 27 28 29 29 21 23 26 29 27 26 28 28
19 18 19 20 19 16 14 12 12 12 14 13 13 13 13 12 14 13 16 18 18 18 19 22 27 23 24 22 27 27 27 30 26 25 27 26 25 30
19 18 17 19 19 16 14 13 14 15 15 13 13 15 15 14 12 11 11 14 14 15 16 18 20 20 22 22 26 27 27 30 28 28 27 29 30 29
22 21 21 19 18 18 17 18 18 17 16 15 15 15 15 16 13 11 12 12 12 11 12 13 17 20 23 25 26 25 26 25 26 28 28 27 26 26
23 22 21 18 19 20 20 20 18 18 17 16 15 15 14 14 15 12 11 11 10 10 9 11 18 21 25 25 25 24 24 25 24 24 24 24 25 26
25 24 24 23 23 22 21 20 19 18 17 16 15 15 13 14 15 14 12 10 9 8 8 11 16 22 24 19 20 25 24 23 23 23 24 24 24 25

GFSNE_sfc_30mbdewp_030.txt.gz
Dewpoint
35 35 36 35 33 31 30 29 26 25 21 20 20 20 22 20 21 22 23 23 26 26 26 25 24 24 24 24 25 28 30 33 32 33 34 35 35 41
36 35 33 33 31 31 29 28 26 23 19 19 18 18 21 19 20 21 22 21 22 23 24 25 26 27 27 27 25 27 31 31 31 33 34 34 35 39
34 34 34 30 29 28 27 24 21 20 18 17 17 19 19 21 21 22 21 20 20 21 24 24 27 28 28 29 30 30 29 29 31 33 34 35 36 38
30 30 28 26 25 23 21 20 20 18 17 16 18 18 20 20 20 20 19 20 20 20 22 24 26 27 29 31 31 29 28 30 34 35 35 35 36 38
29 27 26 23 19 20 19 17 18 17 18 17 17 18 19 19 19 21 21 21 22 22 20 19 21 25 28 31 28 30 28 30 34 37 34 34 35 39
26 26 21 19 18 17 16 17 16 17 17 17 17 17 17 19 21 19 20 21 21 20 19 21 25 26 29 32 33 31 29 31 35 36 34 35 36 37
23 20 18 17 16 18 16 16 18 18 18 16 16 18 18 16 15 23 25 22 21 22 21 23 27 27 30 32 33 30 29 30 34 34 34 36 38 37
20 19 18 18 19 20 21 19 18 18 18 19 19 19 18 20 23 18 18 18 17 21 21 21 24 26 29 32 34 31 34 34 30 31 33 35 37 37
20 20 19 16 21 19 18 18 17 16 18 19 18 21 21 17 17 16 16 18 20 20 19 18 21 23 26 23 29 28 30 28 28 31 34 36 36 36
22 21 19 18 20 18 18 16 16 15 15 15 15 15 15 18 19 19 19 19 21 22 21 19 21 24 26 25 25 26 26 28 29 31 34 37 36 36
22 22 20 18 20 18 16 16 16 15 15 14 14 15 18 21 22 22 23 22 21 21 22 21 23 27 25 23 26 26 25 27 29 31 34 35 35 35
23 21 18 17 17 17 16 17 16 17 15 14 16 19 19 21 22 23 27 24 24 22 22 22 22 22 22 29 28 32 29 28 30 32 33 35 36 35
22 21 21 19 20 18 15 17 17 17 16 17 18 19 21 21 21 22 23 25 25 25 25 24 21 21 21 20 25 27 29 30 31 32 34 35 37 36
22 23 23 21 19 17 16 16 15 17 18 16 16 18 19 20 21 22 23 25 26 29 30 28 23 22 22 21 20 24 27 29 32 32 32 33 35 36
23 24 22 21 20 18 18 15 15 17 17 13 14 16 18 20 21 22 22 24 25 29 32 27 24 23 23 22 22 23 24 27 31 31 32 32 32 32
23 25 24 21 19 18 18 20 19 18 15 14 13 16 17 17 18 21 20 22 23 23 27 31 31 27 24 25 24 25 25 26 31 29 34 33 33 34
24 21 20 21 20 18 18 17 16 17 15 15 14 15 15 15 16 18 20 21 20 21 22 25 29 31 31 29 26 26 26 24 32 31 28 28 29 30
20 19 20 20 21 20 18 18 16 15 16 15 16 16 17 16 15 16 18 20 19 19 20 22 27 24 28 28 30 27 28 26 28 28 28 27 29 32
21 20 20 21 22 21 18 17 14 15 15 16 15 15 17 17 17 16 15 16 16 16 18 20 25 20 20 20 26 28 26 26 29 26 26 27 29 30
24 21 21 21 21 21 19 17 17 18 17 18 15 17 17 16 17 16 14 15 15 14 15 16 18 19 19 21 23 25 26 28 29 26 28 28 29 31
24 24 22 21 22 21 19 19 19 19 18 16 15 18 17 17 16 18 14 13 14 13 12 12 14 20 23 25 25 25 24 26 26 26 28 27 25 26
23 24 24 23 23 22 22 22 21 20 19 19 19 16 17 15 14 17 16 12 13 13 12 12 15 20 26 26 22 24 24 23 25 24 24 24 23 24
25 25 25 23 24 24 23 21 22 20 19 17 17 16 16 13 15 18 16 16 12 12 10 11 15 18 23 22 21 24 23 24 23 24 22 25 25 26

GFSNE_sfc_30mbdewp_033.txt.gz
Dewpoint
36 35 35 36 37 36 34 31 28 27 26 23 21 22 21 21 21 22 23 24 26 26 24 22 21 21 22 23 24 25 27 26 27 28 35 33 34 34
35 34 34 35 35 35 33 29 27 25 21 20 19 19 21 20 21 22 22 22 23 24 24 26 26 24 21 23 25 25 26 26 26 29 31 31 33 33
33 33 32 31 30 28 24 22 20 19 16 18 19 20 19 20 20 22 22 21 21 23 24 25 26 26 27 27 28 27 27 26 27 28 27 28 31 33
30 29 27 26 22 22 20 18 17 18 17 17 18 18 19 20 20 20 20 20 21 22 25 24 25 23 24 26 28 30 30 30 30 27 27 28 31 32
29 27 27 24 20 19 17 16 17 16 17 17 17 18 18 19 19 20 21 22 22 22 21 22 23 25 27 29 30 31 32 31 31 31 31 34 35 32
25 24 24 20 17 16 15 15 16 17 18 18 17 17 17 19 20 18 22 23 22 21 21 23 24 26 24 27 30 30 32 33 32 31 34 36 35 36
22 22 19 19 19 17 16 17 19 18 18 18 17 17 18 19 19 24 20 17 17 19 20 22 22 23 25 27 30 31 34 34 34 31 31 34 35 36
21 21 20 19 20 21 21 21 20 18 17 18 18 18 18 22 21 18 16 16 15 18 22 20 22 21 23 27 30 29 34 30 35 34 31 31 33 34
22 21 20 21 20 18 18 18 16 16 18 18 16 17 15 15 16 17 18 19 19 20 20 21 23 21 23 24 25 29 29 31 32 32 32 32 33 36
23 22 21 20 19 18 17 16 16 17 16 16 17 15 16 17 19 20 21 21 22 22 22 21 23 21 24 26 28 29 31 30 28 30 31 33 35 36
23 23 22 19 20 19 17 16 16 17 16 17 16 19 20 21 22 25 23 22 21 21 23 24 23 23 24 24 27 29 31 33 31 29 32 32 34 36
23 22 19 18 18 18 18 15 14 15 17 17 17 18 20 21 23 22 22 21 21 21 22 25 24 23 20 23 25 27 30 32 31 31 31 31 34 35
23 22 21 20 21 20 19 17 16 17 18 17 18 18 19 20 21 22 22 23 22 21 23 28 26 23 22 21 22 23 29 30 31 31 32 32 35 35
21 21 23 24 22 21 20 19 19 19 17 16 16 14 17 17 19 21 22 23 23 24 29 30 26 24 23 22 21 23 25 28 31 32 32 33 35 36
21 21 23 24 22 23 22 21 20 17 15 15 14 14 14 17 19 19 20 21 23 24 24 31 29 28 26 23 22 23 25 26 31 31 32 31 32 33
21 22 24 24 23 21 20 20 19 18 16 16 13 13 16 16 16 17 18 19 21 20 21 24 27 29 27 26 26 25 25 26 30 32 32 31 31 32
22 23 24 20 19 20 20 19 19 17 16 15 13 15 16 17 16 17 17 18 19 18 18 20 25 25 30 29 26 26 26 26 29 31 32 31 32 32
24 22 20 17 18 19 20 19 18 16 16 14 15 16 16 16 17 17 17 16 17 16 16 19 23 20 21 27 29 25 27 26 28 28 30 29 29 31
21 19 18 18 17 19 21 19 17 16 15 16 16 14 15 17 16 17 16 14 14 15 16 17 18 19 17 17 25 27 25 25 27 25 26 28 28 30
23 21 20 19 19 20 21 20 18 16 16 16 16 13 14 17 15 15 17 14 14 14 13 13 14 15 18 19 21 24 26 26 28 26 27 27 29 30
23 23 22 21 21 20 21 20 17 16 16 15 15 14 16 16 15 13 17 16 13 13 12 12 12 16 23 27 23 23 22 26 26 26 28 26 25 26
23 23 23 23 22 23 24 24 20 18 17 16 16 17 17 15 12 11 16 16 15 12 12 11 13 19 23 23 22 23 23 22 24 25 26 25 24 24
24 24 23 24 24 22 22 23 22 20 19 18 18 15 14 14 11 13 16 16 15 10 11 11 12 15 18 19 20 23 23 22 23 21 22 26 27 28

GFSNE_sfc_30mbdewp_036.txt.gz
Dewpoint
34 34 34 36 37 37 37 36 31 27 26 24 19 20 21 21 21 23 21 22 22 22 22 22 22 23 23 24 24 24 25 27 28 28 28 27 28 33
34 33 33 34 34 35 34 32 30 25 22 20 18 20 20 19 19 20 22 21 22 24 24 23 24 24 24 24 24 24 24 25 25 26 28 27 28 31
33 33 32 33 32 31 25 22 19 18 16 17 19 19 19 19 19 21 22 21 22 23 23 23 25 25 26 24 24 23 25 25 27 28 28 26 29 31
30 29 28 27 24 22 21 18 17 17 17 15 17 17 18 19 19 20 20 21 22 22 21 22 20 21 26 26 27 28 28 29 29 30 30 29 28 27
30 28 27 27 22 21 18 16 17 16 17 17 17 18 18 18 19 20 21 20 23 20 16 16 17 20 24 24 24 26 28 29 30 33 33 31 30 29
25 23 22 21 19 17 16 15 16 17 18 18 18 18 17 18 20 20 21 20 18 16 17 18 21 23 22 22 23 23 27 30 30 32 34 33 32 34
23 22 20 20 21 18 16 17 19 18 18 17 17 18 17 17 19 21 21 16 17 18 18 20 22 21 23 24 24 24 27 30 34 34 33 33 33 34
20 22 21 20 21 22 22 21 20 17 16 17 17 16 16 16 18 16 16 17 17 19 20 20 22 22 23 25 25 26 27 28 33 33 33 33 33 32
20 22 21 21 21 20 20 19 17 17 16 17 16 17 15 15 16 17 19 20 20 21 21 21 22 22 24 23 24 26 29 30 31 31 32 32 32 31
22 23 21 21 20 18 18 16 16 15 15 16 17 17 17 19 21 22 24 24 24 22 23 20 22 22 24 24 26 29 29 31 32 33 32 32 31 32
23 23 23 21 20 21 18 17 17 15 14 17 17 19 18 19 21 23 21 21 18 19 21 22 21 22 24 24 24 28 28 30 31 33 32 32 32 32
23 23 22 19 21 20 19 18 16 13 15 17 18 17 18 19 20 21 22 20 20 18 21 21 22 24 22 22 24 23 24 29 31 31 31 32 32 31
22 22 22 22 21 21 22 20 17 16 18 19 18 17 18 18 18 19 21 22 21 20 21 24 24 25 24 23 22 23 24 25 28 30 31 32 31 32
22 23 23 23 23 24 22 22 22 21 20 18 16 16 15 14 17 19 20 21 22 22 23 25 25 26 25 23 22 23 24 26 29 31 31 32 33 33
23 23 22 23 24 24 24 23 22 20 19 16 15 15 14 15 18 18 18 19 21 23 22 22 23 25 25 24 23 23 24 24 29 31 31 31 31 33
24 24 23 23 24 23 22 21 21 20 19 16 15 14 15 16 17 17 17 18 19 18 19 20 22 25 23 26 26 25 25 25 26 30 31 31 31 32
26 23 22 21 22 22 20 20 21 20 18 17 15 13 16 16 17 17 18 17 16 16 17 18 21 21 22 28 26 24 25 26 27 30 31 30 31 31
24 23 22 21 21 20 18 18 19 18 18 16 13 15 14 16 16 16 17 16 14 15 16 17 17 17 19 23 27 24 24 26 25 27 28 29 29 30
25 22 22 20 19 19 19 19 19 20 17 16 15 15 14 15 16 16 15 16 15 14 16 15 15 16 15 15 21 27 23 25 26 25 26 27 27 28
25 22 21 19 18 19 19 19 19 19 16 15 15 14 12 14 16 15 13 15 15 14 13 13 12 15 16 16 19 24 25 25 26 25 26 27 29 30
25 24 22 21 20 20 20 19 19 18 16 15 15 14 13 16 16 13 11 15 15 14 12 11 11 16 22 24 21 22 21 26 27 25 26 25 24 25
25 24 24 23 22 21 20 20 19 18 17 15 15 13 13 16 15 12 11 15 16 13 11 11 13 16 20 21 21 22 22 21 23 25 27 27 24 23
26 25 24 24 24 23 22 22 22 21 20 19 17 15 15 15 14 11 12 15 15 11 11 10 12 14 15 19 21 21 23 21 22 21 22 26 27 28